CZ-5 R/B

基本信息
目录编号:
58583
目录名称:
CZ-5 R/B
国际标识:
2023-197B
轨道中心:
EARTH
物体状态:
在轨
发射日期:
2023-12-15 UTC
国别:
中国 (CN)
轨道信息
数据来源: 国际轨道数据
星历时间: 2026-07-13T19:14:35+0800
半长轴: 23227.625km
偏心率: 0.7140575
轨道倾角: 18.951°
近地点辐角: 184.693°
升交点赤经: 273.475°
平近点角: 160.520°
近地点: 263.628km
远地点: 33435.348km
周期: 587.174分钟
每日圈数: 2.452424
详细信息
发射场:
WSC
轨道高度:
LEO
数据来源:
AOE Integration Group
参考系:
TEME
时间系统:
UTC
历元类型:
SGP4
2D轨道图
3D轨道图
轨道高度分析图
轨道倾角分析图
轨道综合分析图
查看轨道综合分析图